STARLINK-33807, 63518

Orbit data source: Space-Track

STARLINK-33807, 63518 is a payload satellite owned by SpaceX/Seattle (US) in LEO that was launched on Mon, 07 Apr 2025 UTC via an FALCON 9 launch vehicle from the Air Force Western Test Range (AFWTR). Payload-class satellites include a variety of spacecraft equipped with specific instruments for various scientific and technological missions. These include communications satellites like Starlink; space stations such as the ISS; scientific satellites like the Hubble; Earth observation satellites from companies like Planet Labs, Umbra, and HawkEye 360; GPS; miniature CubeSats for education and research; and military/defense satellites.

Loading next visibility...
Identifier
63518, 2025-071AB
Orbit
LEO
Country
Flag of USUS
Related business
Manufacturer
SpaceX/Seattle
Mission
Operational Commercial Communications
Bus & Motor
STARLINK V2MO, Unknown motor
Mass
575 kg wet, ~530 kg dry
Launch date (UTC)
2025-04-07 (1 year ago)
Launch vehicle
FALCON 9
Launch site
Air Force Western Test Range (AFWTR)
Object type
Payload
Rocket body
Debris
Shape & HBR
Box + 1 Pan, 17.7 m
Radar Cross Section
41.120 m², Large (>1 m²)

Expand to show TLE details & history
Last TLE update: 11 hours ago

TLE from 11 hours ago
0 STARLINK-33807
1 63518U 25071AB  26263.60089524  .00012730  00000-0  38732-3 0  9990
2 63518  53.1609 309.4310 0001199  90.4783 269.6357 15.34393780 82685
Epoch: 2026-09-20T14:25Z
TLE epoch observation values (Epoch: 2026-09-20T14:25:17.348Z)
Latitude
-0.00003°
Longitude
93.61595°
Altitude
463.628 km
Speed
7.636 km/s
True Right ascension
20h 37m 43s
True Declination
0° 00' 00"
Sunlit
Object was in full shadow at epoch
Visualization orbit readout
Latitude
Unknown
Longitude
Unknown
Altitude
Unknown
Speed
Unknown
Apparent Right ascension
Unknown
Apparent Declination
Unknown
Sunlit
N/A
Visualization observer readout
Local Sidereal Time
18:21:09
Azimuth
Unknown
Elevation
Unknown
Doppler factor
Unknown
Orbital elements
Apogee altitude
463.799 km
Perigee altitude
462.158 km
Semi-major axis
6,841.115 km
Eccentricity
0.00012
Inclination
53.1609°
RAAN
309.431°
Arg. of periapsis
90.4783°
True anomaly
269.62196°
Mean anomaly
269.6357°
Eccentric anomaly
269.62883°
Mean motion
3.83577 °/min
Orbital period
93.85 mins
BSTAR
0.00038732
Loading maneuver chart data...
Computing Atmospheric mass density...
Loading historical data...
Loading historical data...
Loading historical data...
Loading historical data...
Loading historical data...
Loading historical data...
Loading historical data...

Documentation

Showing up to 5 results
|